Bad Axe, MI

3:50 AM EDT on August 20, 2017 (GMT -0400)
Huron County Memorial

Weather History for KBAX - November, 2012

Change the Weather History Date:

Sunday, November 18, 2012

  Actual Average (KP58) Record (KP58)
Temperature  
Mean Temperature 38 °F -  
Max Temperature 50 °F 43 °F 66 °F (2016)
Min Temperature 27 °F 33 °F 17 °F (2014)
Degree Days  
Heating Degree Days 26    
Moisture  
Dew Point 35 °F    
Average Humidity 92    
Maximum Humidity 100    
Minimum Humidity 63    
Precipitation  
Precipitation 0.00 in - - ()
Sea Level Pressure  
Sea Level Pressure 30.51 in    
Wind  
Wind Speed 3 mph (SE)    
Max Wind Speed 7 mph    
Max Gust Speed -    
Visibility 4 miles    
Events Fog    
Averages and records for this station are not official NWS values.
T = Trace of Precipitation, MM = Missing Value Source: NWS Daily Summary

Daily Weather History Graph

Daily Weather History Graph

Search for Another Location

Airport or City:

Trip Planner

Search our weather history database for the weather conditions in past years. The results will help you decide how hot, cold, wet, or windy it might be!

Date:

Astronomy

Nov. 18, 2012 Rise Set
Actual Time 7:30 AM EST 5:03 PM EST
Civil Twilight 6:59 AM EST 5:34 PM EST
Nautical Twilight 6:24 AM EST 6:09 PM EST
Astronomical Twilight 5:50 AM EST 6:43 PM EST
Moon 11:55 AM EST (11/18) 10:24 PM EST (11/18)
Length of Visible Light 10h 35m
Length of Day
9h 32m
Waxing Crescent, 30% of the Moon is Illuminated
Nov 18
Waxing Crescent
Nov 20
First Quarter
Nov 28
Full
Dec 6
Last Quarter
Dec 13
New

Hourly Weather History & Observations

Time (EST) Temp. Windchill Dew Point Humidity Pressure Visibility Wind Dir Wind Speed Gust Speed Precip Events Conditions
12:14 AM 34.3 °F - 31.6 °F 90% 30.57 in 5.0 mi Calm Calm - N/A   Clear
12:35 AM 31.8 °F 28.5 °F 29.5 °F 91% 30.56 in 4.0 mi SE 3.5 mph - N/A   Clear
12:55 AM 30.7 °F - 28.4 °F 91% 30.56 in 3.0 mi Calm Calm - N/A   Clear
1:14 AM 30.9 °F - 29.1 °F 93% 30.56 in 3.0 mi Calm Calm - N/A   Clear
1:35 AM 31.8 °F 28.5 °F 30.2 °F 94% 30.56 in 2.5 mi SSE 3.5 mph - N/A   Clear
1:54 AM 31.3 °F - 29.8 °F 94% 30.56 in 2.0 mi Calm Calm - N/A   Clear
2:14 AM 31.8 °F - 30.6 °F 95% 30.56 in 1.8 mi Calm Calm - N/A   Mist
2:35 AM 31.8 °F 28.5 °F 31.1 °F 97% 30.56 in 1.5 mi SSE 3.5 mph - N/A   Mist
2:54 AM 31.8 °F 28.5 °F 31.5 °F 99% 30.55 in 2.0 mi SSE 3.5 mph - N/A   Clear
3:14 AM 34.5 °F 30.4 °F 33.8 °F 97% 30.55 in 3.0 mi SSE 4.6 mph - N/A   Clear
3:35 AM 36.3 °F 32.5 °F 35.4 °F 97% 30.55 in 4.0 mi SE 4.6 mph - N/A   Clear
3:55 AM 36.7 °F 32.0 °F 35.1 °F 94% 30.54 in 3.0 mi SSE 5.8 mph - N/A   Clear
4:15 AM 37.0 °F 32.4 °F 35.4 °F 94% 30.53 in 3.0 mi SSE 5.8 mph - N/A   Clear
4:34 AM 37.0 °F 33.3 °F 35.4 °F 94% 30.53 in 2.5 mi SSE 4.6 mph - N/A   Clear
5:15 AM 37.0 °F 32.4 °F 36.1 °F 97% 30.54 in 2.0 mi SSE 5.8 mph - N/A   Clear
5:34 AM 37.4 °F 32.8 °F 36.5 °F 97% 30.54 in 2.0 mi SSE 5.8 mph - N/A   Clear
5:55 AM 37.2 °F 32.6 °F 36.5 °F 97% 30.54 in 2.0 mi SSE 5.8 mph - N/A   Clear
6:15 AM 36.5 °F 31.8 °F 35.8 °F 97% 30.54 in 1.5 mi SSE 5.8 mph - N/A   Scattered Clouds
6:34 AM 36.5 °F 31.8 °F 35.8 °F 97% 30.54 in 0.2 mi SSE 5.8 mph - N/A Fog Fog
6:55 AM 36.1 °F 30.6 °F 35.8 °F 99% 30.54 in 0.2 mi SSE 6.9 mph - N/A Fog Fog
7:14 AM 36.7 °F 32.0 °F 36.5 °F 99% 30.54 in 0.2 mi SSE 5.8 mph - N/A Fog Fog
7:35 AM 36.3 °F - 36.1 °F 99% 30.55 in 0.2 mi Calm Calm - N/A Fog Fog
7:55 AM 35.8 °F 30.9 °F 35.6 °F 99% 30.55 in 0.2 mi SSE 5.8 mph - N/A Fog Fog
8:15 AM 35.6 °F 31.7 °F 35.6 °F 100% 30.55 in 0.2 mi SSE 4.6 mph - N/A Fog Fog
8:35 AM 35.6 °F 30.7 °F 35.6 °F 100% 30.55 in 0.2 mi SSE 5.8 mph - N/A Fog Fog
8:55 AM 35.8 °F 33.0 °F 35.8 °F 100% 30.55 in 0.2 mi SSE 3.5 mph - N/A Fog Fog
9:14 AM 35.8 °F - 35.8 °F 100% 30.55 in 0.2 mi Calm Calm - N/A Fog Fog
9:35 AM 36.0 °F 32.1 °F 36.0 °F 100% 30.55 in 0.2 mi SE 4.6 mph - N/A Fog Fog
9:55 AM 35.6 °F 31.7 °F 35.6 °F 100% 30.55 in 0.2 mi SE 4.6 mph - N/A Fog Fog
10:14 AM 36.7 °F 32.0 °F 36.7 °F 100% 30.54 in 0.2 mi SSE 5.8 mph - N/A Fog Fog
10:35 AM 37.6 °F 33.1 °F 37.6 °F 100% 30.55 in 1.8 mi SSE 5.8 mph - N/A   Overcast
10:55 AM 37.4 °F 32.8 °F 37.4 °F 100% 30.55 in 2.0 mi SSE 5.8 mph - N/A   Overcast
11:14 AM 38.3 °F 35.9 °F 38.3 °F 100% 30.54 in 2.5 mi SE 3.5 mph - N/A   Overcast
11:35 AM 39.7 °F 35.6 °F 39.7 °F 100% 30.53 in 2.5 mi SSE 5.8 mph - N/A   Mostly Cloudy
11:55 AM 39.6 °F 37.4 °F 39.4 °F 99% 30.52 in 4.0 mi SSE 3.5 mph - N/A   Scattered Clouds
12:15 PM 41.0 °F - 40.1 °F 97% 30.52 in 4.0 mi Calm Calm - N/A   Clear
12:35 PM 43.7 °F - 40.1 °F 87% 30.51 in 7.0 mi Calm Calm - N/A   Clear
12:54 PM 45.3 °F - 40.5 °F 83% 30.50 in 7.0 mi Calm Calm - N/A   Clear
1:15 PM 47.3 °F - 40.5 °F 77% 30.49 in 10.0 mi SE 3.5 mph - N/A   Clear
1:35 PM 48.2 °F - 39.7 °F 73% 30.49 in 10.0 mi Calm Calm - N/A   Clear
1:55 PM 48.7 °F - 37.9 °F 66% 30.48 in 10.0 mi SSE 4.6 mph - N/A   Clear
2:14 PM 49.5 °F - 37.8 °F 64% 30.48 in 10.0 mi Calm Calm - N/A   Clear
2:35 PM 47.8 °F - 37.8 °F 68% 30.47 in 10.0 mi Calm Calm - N/A   Clear
2:55 PM 50.4 °F - 38.3 °F 63% 30.46 in 10.0 mi SE 5.8 mph - N/A   Clear
3:15 PM 50.0 °F - 38.8 °F 66% 30.46 in 10.0 mi ESE 4.6 mph - N/A   Clear
3:35 PM 48.9 °F - 40.5 °F 73% 30.46 in 10.0 mi East 4.6 mph - N/A   Clear
3:55 PM 48.4 °F - 40.3 °F 74% 30.46 in 10.0 mi East 4.6 mph - N/A   Clear
4:15 PM 46.0 °F 44.8 °F 38.8 °F 76% 30.47 in 10.0 mi ESE 3.5 mph - N/A   Clear
4:35 PM 44.6 °F 43.1 °F 39.0 °F 81% 30.47 in 10.0 mi East 3.5 mph - N/A   Clear
4:55 PM 44.1 °F 42.5 °F 39.2 °F 83% 30.47 in 7.0 mi ESE 3.5 mph - N/A   Clear
5:15 PM 42.8 °F - 38.5 °F 85% 30.46 in 7.0 mi Calm Calm - N/A   Clear
5:35 PM 41.2 °F - 37.8 °F 88% 30.46 in 7.0 mi Calm Calm - N/A   Clear
5:55 PM 39.9 °F - 37.4 °F 91% 30.46 in 5.0 mi Calm Calm - N/A   Clear
6:15 PM 37.2 °F - 35.4 °F 93% 30.46 in 3.0 mi Calm Calm - N/A   Clear
6:35 PM 36.3 °F - 34.9 °F 95% 30.47 in 2.0 mi Calm Calm - N/A   Clear
6:55 PM 34.9 °F - 33.8 °F 96% 30.46 in 0.2 mi Calm Calm - N/A Fog Fog
7:15 PM 34.3 °F - 33.6 °F 97% 30.46 in 1.0 mi Calm Calm - N/A   Mostly Cloudy
7:35 PM 34.5 °F - 34.0 °F 98% 30.46 in 2.5 mi Calm Calm - N/A   Clear
7:55 PM 36.7 °F - 36.3 °F 99% 30.46 in 4.0 mi Calm Calm - N/A   Clear
8:15 PM 35.2 °F - 34.7 °F 98% 30.45 in 4.0 mi Calm Calm - N/A   Clear
8:35 PM 32.0 °F - 31.8 °F 99% 30.45 in 0.5 mi Calm Calm - N/A Fog Fog
8:55 PM 31.3 °F - 30.7 °F 98% 30.45 in 0.5 mi Calm Calm - N/A Fog Light Freezing Fog
9:15 PM 28.9 °F - 28.4 °F 98% 30.45 in 0.2 mi Calm Calm - N/A Fog Light Freezing Fog
9:36 PM 27.9 °F - 27.3 °F 98% 30.45 in 0.2 mi Calm Calm - N/A Fog Light Freezing Fog
9:55 PM 28.4 °F - 28.2 °F 99% 30.45 in 0.2 mi Calm Calm - N/A Fog Light Freezing Fog
10:15 PM 29.7 °F - 29.3 °F 99% 30.45 in 0.2 mi Calm Calm - N/A Fog Light Freezing Fog
10:35 PM 30.7 °F - 30.7 °F 100% 30.44 in 2.5 mi Calm Calm - N/A   Clear
10:55 PM 33.6 °F 29.4 °F 33.6 °F 100% 30.44 in 3.0 mi SSE 4.6 mph - N/A   Clear
11:14 PM 34.7 °F 30.6 °F 34.7 °F 100% 30.43 in 7.0 mi SSE 4.6 mph - N/A   Clear
11:35 PM 36.1 °F 32.3 °F 35.4 °F 97% 30.44 in 10.0 mi SSE 4.6 mph - N/A   Clear